Location: Vesunti
(61.5000°N, 22.8333°E)
Time: 03:20:18
(UTC+00:00)

Daily predictions for brighter satellites

Satellite Brightness Start Highest point End
(mag) Time Altitude Azimuth Time Altitude Azimuth Time Altitude Azimuth
Cosmos 2333 Rocket 4.5 00:07:49 17° E 00:07:49 17° E 00:10:03 10° ENE
SL-16 R/B 4.2 00:20:15 24° NNW 00:20:15 24° NNW 00:22:35 10° NNW
ADEOS II 4.0 00:16:23 10° NNE 00:19:10 25° NE 00:19:10 25° NE
Cosmos 2322 Rocket 3.7 00:32:49 33° NE 00:32:49 33° NE 00:35:56 10° NE
Resurs 1-4 Rocket 3.8 00:26:38 10° NNE 00:29:20 30° NNE 00:29:20 30° NNE
ATLAS 2AS CENTAUR R/B 3.2 00:35:39 66° ENE 00:35:39 66° ENE 00:42:06 10° ENE
Cosmos 2219 Rocket 3.8 00:51:19 29° E 00:51:19 29° E 00:55:02 10° NE
Cosmos 2344 3.6 00:59:46 88° SE 00:59:46 88° SE 01:09:18 10° ENE
Cosmos 2360 Rocket 3.3 01:02:31 42° ENE 01:02:31 42° ENE 01:06:15 10° NE
Cosmos 1697 Rocket 4.0 01:04:05 35° N 01:04:05 35° N 01:08:19 10° NE
COSMOS 2428 4.0 01:04:25 33° E 01:04:25 33° E 01:08:39 10° NE
Cosmos 1943 Rocket 3.3 01:08:07 40° ENE 01:08:07 40° ENE 01:12:10 10° ESE
Cosmos 1980 Rocket 3.3 01:09:03 38° N 01:09:03 38° N 01:13:07 10° NE
Lacrosse 5 4.4 01:20:08 13° ESE 01:20:08 13° ESE 01:20:37 10° ESE
ARIANE 5 R/B 3.7 01:14:11 10° NNE 01:17:33 39° NE 01:17:33 39° NE
COSMOS 2455 3.4 01:23:53 52° N 01:23:53 52° N 01:29:15 10° ENE
CZ-2D R/B 3.3 01:18:51 10° NNE 01:21:55 35° N 01:21:55 35° N
Cosmos 2369 Rocket 2.9 01:26:14 48° NNE 01:26:49 50° NNE 01:32:23 10° ESE
SL-16 R/B 2.9 01:29:52 50° NNE 01:29:52 50° NNE 01:34:17 10° NE
USA 215 4.0 01:26:58 10° E 01:32:38 39° SE 01:32:38 39° SE
CZ-4C R/B 3.6 01:44:29 28° SE 01:45:03 28° ESE 01:50:19 10° ENE
Cosmos 2333 Rocket 2.5 01:49:49 62° ESE 01:49:49 62° ESE 01:55:10 10° NE
NOSS 3-1 (A) 4.3 01:51:47 47° S 01:51:47 47° S 01:57:51 10° SE
NOSS 3-4 (A) 3.5 01:50:45 77° NNW 01:50:58 78° N 01:57:57 10° ENE
NOSS 3-4 (C) 3.5 01:50:51 77° NNW 01:51:04 78° N 01:58:03 10° ENE
EO 1 Delta rocket 4.4 01:47:31 10° NNE 01:51:52 61° ENE 01:51:52 61° ENE
Cosmos 2322 3.8 01:57:21 75° NE 01:57:21 75° NE 02:02:32 10° NE
Cosmos 2333 4.3 01:57:46 77° ENE 01:57:46 77° ENE 02:03:08 10° NE
ADEOS II 2.5 01:55:59 10° NNE 02:00:07 54° N 02:00:07 54° N
Cosmos 1934 Rocket 4.1 01:57:17 10° NNW 02:03:34 73° ENE 02:09:54 10° SSE
ATLAS CENTAUR R/B 4.2 02:06:56 12° SE 02:08:31 14° ESE 02:10:44 10° E
IDEFIX/ARIANE 42P 3.0 02:03:40 10° NNE 02:08:54 59° ESE 02:09:37 54° SE
Cosmos 1821 Rocket 3.8 02:03:48 10° NNW 02:09:25 72° NW 02:09:25 72° NW
Resurs 1-4 Rocket 3.3 02:06:47 10° NNE 02:10:25 32° NNW 02:10:25 32° NNW
Cosmos 2322 Rocket 2.7 02:14:37 47° NNW 02:14:39 47° NNW 02:20:11 10° NE
Cosmos 1340 Rocket 4.1 02:20:28 36° NNE 02:20:28 36° NNE 02:22:57 10° NNE
Cosmos 2237 Rocket 2.9 02:21:11 40° SSE 02:22:38 49° ESE 02:28:03 10° NE
Cosmos 1605 Rocket 4.2 02:17:18 10° NNW 02:23:38 70° ENE 02:29:49 10° SSE
ATLAS 2AS CENTAUR R/B 3.0 02:23:04 46° WNW 02:25:46 76° N 02:33:22 10° E
Cosmos 494 Rocket 4.0 02:25:43 69° SE 02:26:00 71° ESE 02:31:08 10° NE
Alouette 2 Rocket 4.0 02:25:45 65° SE 02:26:03 67° ESE 02:31:51 10° NNE
deb Chang Zheng 4 4.1 02:22:52 10° NNE 02:26:12 53° NNE 02:26:12 53° NNE
Cosmos 921 Rocket 4.2 02:26:21 19° NNW 02:29:19 44° NE 02:33:34 10° ESE
Cosmos 2084 Rocket 3.8 02:30:03 65° ENE 02:30:03 65° ENE 02:33:56 10° ENE
IRS-1D 4.4 02:24:48 10° NNE 02:28:45 36° NNW 02:28:45 36° NNW
Cosmos 1300 4.5 02:32:17 26° N 02:32:17 26° N 02:34:05 10° N
Cosmos 1455 3.3 02:31:41 40° E 02:31:48 40° E 02:35:22 10° NNE
COSMO-SKYMED 1 3.6 02:28:23 10° SE 02:32:33 46° ENE 02:36:44 10° N
PSLV R/B 3.9 02:28:38 10° NNE 02:32:49 58° ESE 02:32:56 58° ESE
Cosmos 2219 Rocket 2.0 02:33:02 73° WSW 02:33:37 85° NW 02:39:21 10° NE
Cosmos 1408 Rocket 3.7 02:30:11 10° NNW 02:39:04 - SSE 02:34:20 69° NE
NOSS 2-2 (D) 3.9 02:34:59 74° WNW 02:35:27 86° NNE 02:41:48 10° ESE
Cosmos 468 4.4 02:35:43 71° NW 02:35:44 71° NW 02:41:00 10° NNE
Cosmos 2239 Rocket 4.4 02:29:59 10° NNW 02:36:06 63° W 02:36:30 62° WSW
Cosmos 2237 4.5 02:37:25 51° NW 02:37:55 53° NNW 02:43:31 10° NE
ADEOS 4.0 02:36:03 10° NNE 02:41:15 59° ESE 02:44:12 25° S
Nadezhda 3 Rocket 3.9 02:41:14 37° SSW 02:43:57 90° NNW 02:50:21 10° NNE
Cosmos 2360 Rocket 2.5 02:44:16 47° NW 02:44:56 49° NNW 02:50:27 10° NE
COSMOS 2428 2.6 02:46:26 61° WSW 02:47:26 78° NW 02:53:13 10° NE
Cosmos 2181 Rocket 4.4 02:47:32 45° WNW 02:47:59 45° WNW 02:54:13 10° N
Cosmos 1697 Rocket 4.0 02:45:48 23° NW 02:48:19 32° N 02:53:22 10° ENE
Spot 4 Rocket 4.2 02:43:43 10° NNE 02:48:39 54° WNW 02:48:39 54° WNW
Cosmos 1269 Rocket 4.0 02:47:43 54° SSW 02:48:56 79° ESE 02:54:16 10° NE
Meteor 2-10 Rocket 4.2 02:46:07 12° S 02:50:55 53° E 02:55:55 10° NNE
Cosmos 1943 Rocket 2.0 02:49:41 52° WNW 02:50:56 70° SW 02:56:25 10° SSE
CBERS 1 LM4 rocket 4.4 02:46:47 10° NNE 02:52:03 86° ESE 02:53:34 47° SSW
Cosmos-2242 3.2 02:51:47 53° SSE 02:52:39 70° E 02:56:56 10° NNE
Cosmos 1980 Rocket 3.5 02:50:48 25° NW 02:52:56 32° N 02:57:58 10° ENE
Lacrosse 5 3.1 02:59:21 27° S 02:59:21 27° S 03:02:29 10° SSE
ARIANE 5 R/B 3.1 02:53:32 10° NNE 02:57:54 39° NW 02:57:54 39° NW
ADEOS Rocket 4.0 02:54:41 10° SE 03:00:57 53° NE 03:07:56 10° NNW
Cosmos 1461 2.9 03:01:57 66° NNW 03:02:03 67° NNW 03:06:20 10° ENE
CZ-2D R/B 3.6 02:59:27 10° N 03:03:14 21° NW 03:03:14 21° NW
Cosmos 1812 Rocket 3.9 03:04:05 51° NW 03:04:05 51° NW 03:08:05 10° N
CZ-2C R/B 2.8 02:58:42 10° NNE 03:03:56 68° ESE 03:08:22 14° S
SL-16 R/B 3.2 02:59:40 13° S 03:04:25 43° ESE 03:09:46 10° NE
COSMOS 2455 3.4 03:07:00 27° NW 03:10:08 54° NNE 03:16:03 10° E
Cosmos 2369 Rocket 2.1 03:08:02 28° NW 03:11:08 66° SW 03:16:48 10° SSE
Cosmos 1980 3.7 03:09:29 38° SW 03:11:48 86° SE 03:17:33 10° NE
Cosmos 2100 Rocket 4.3 03:06:01 10° NNW 03:12:18 69° ENE 03:18:29 10° SSE
RESURS DK-1 3.8 03:12:23 25° NNW 03:13:08 27° N 03:16:44 10° NE
SL-16 R/B 3.2 03:11:43 27° NW 03:13:42 35° NNW 03:18:53 10° NE
Cosmos 2344 4.0 03:09:44 29° WNW 03:14:37 82° N 03:25:27 10° E
NOSS 2-2 (C) 4.0 03:13:13 44° WNW 03:14:54 78° SSW 03:21:28 10° ESE
USA 215 3.5 03:10:26 10° E 03:16:55 59° S 03:20:00 32° SW
Elektron 3 3.9 03:17:10 70° ESE 03:17:10 70° ESE 03:19:47 10° E
NOSS 2-2 (E) 4.1 03:16:28 41° WNW 03:18:20 72° SSW 03:25:08 10° SE
Meteor 2-3 Rocket 3.6 03:13:28 10° NNW 03:19:11 74° WSW 03:24:57 10° S
Sich 1 4.2 03:16:02 10° N 03:20:09 43° ENE 03:24:16 10° SE
SKYMED 2 3.4 03:16:15 10° SSE 03:20:36 84° WSW 03:24:59 10° NNW
Cosmos 2263 4.1 03:16:38 20° NW 03:20:39 71° SW 03:26:19 10° SSE
Cosmos 1500 Rocket 3.5 03:16:08 10° NNW 03:20:40 89° WSW 03:25:06 10° SSE
Okean O Rocket 4.3 03:17:49 10° NE 03:21:10 21° E 03:24:27 10° SE
Cosmos 1048 Rocket 4.4 03:21:55 40° WNW 03:22:59 46° NW 03:27:56 10° NNE
Meteor 2-1 Rocket 4.2 03:25:18 33° SW 03:27:42 60° WNW 03:33:14 10° NNE
NOSS 0 Rocket 3.9 03:24:36 32° SW 03:27:45 82° NW 03:34:02 10° NE
Cosmos 1459 Rocket 4.0 03:25:46 10° NNW 03:31:55 80° ENE 03:38:09 10° SSE
Cosmos 1743 Rocket 3.4 03:27:46 10° NNW 03:32:06 70° W 03:36:24 10° S
CZ-4C R/B 2.5 03:29:40 29° SW 03:32:42 73° SSE 03:39:25 10° ENE
Cosmos 2333 Rocket 2.5 03:31:49 34° W 03:34:00 52° NNW 03:39:37 10° NE
COSMOS 2441 4.4 03:29:59 10° NNE 03:34:50 60° WNW 03:37:11 29° SW
Cosmos 1484 Rocket 3.4 03:33:15 10° NNE 03:37:08 59° ESE 03:41:02 10° S
ALOS 3.3 03:33:09 10° NNE 03:37:42 47° E 03:42:12 10° S
CZ-4B R/B 3.0 03:34:09 10° NNE 03:37:59 66° ESE 03:41:38 10° S
Cosmos 1656 Rocket 3.6 03:33:10 14° NW 03:38:05 77° SW 03:43:46 10° SSE
CZ-2C R/B 4.2 03:36:27 10° N 03:38:34 21° NNW 03:38:34 21° NNW
ADEOS II 3.3 03:36:10 10° N 03:40:17 24° NW 03:41:04 23° WNW
OPS 0252 4.4 03:40:56 68° NW 03:41:14 82° NNE 03:44:20 10° ESE
Cosmos 2322 4.3 03:39:16 29° WNW 03:41:35 42° NNW 03:46:59 10° NE
NOSS 3-4 (A) 3.7 03:38:10 25° WNW 03:42:16 85° NNE 03:49:31 10° ESE
NOSS 3-4 (C) 3.7 03:38:16 25° WNW 03:42:22 84° NNE 03:49:37 10° ESE
H-2A R/B 2.6 03:38:06 10° NNE 03:42:25 80° ESE 03:46:51 10° SSW
Cosmos 1802 Rocket 4.1 03:38:24 10° NNW 03:44:53 83° ENE 03:51:20 10° SSE
ATLAS CENTAUR R/B 2.5 03:43:09 15° SSW 03:46:38 45° SE 03:50:46 10° ENE
MSX 3.9 03:41:59 10° NNE 03:47:36 55° WNW 03:51:32 20° SW
IDEFIX/ARIANE 42P 3.1 03:43:30 10° NNE 03:48:24 40° NW 03:50:26 28° WSW
NOSS 7 (H) 4.1 03:49:09 55° W 03:49:44 83° NNW 03:53:06 10° ENE
Resurs 1-4 Rocket 4.0 03:47:17 10° N 03:50:09 15° NNW 03:51:30 14° NW
Cosmos 1842 Rocket 3.7 03:48:48 10° S 03:53:18 81° ESE 03:57:49 10° NNE
Cosmos 1340 Rocket 4.2 03:56:04 22° NW 03:56:04 22° NW 03:59:04 10° N
Meteor 1-27 4.4 03:50:45 10° S 03:56:16 72° ESE 04:01:51 10° NNE
Cosmos 1633 2.4 03:52:47 10° NNW 03:56:27 78° WSW 04:00:06 10° S
Cosmos 2322 Rocket 3.4 03:56:25 18° WNW 03:59:55 32° N 04:05:03 10° ENE
Cosmos 1356 Rocket 3.3 03:58:20 11° SSW 04:02:13 68° WNW 04:06:22 10° NNE
Cosmos 1174 4.2 04:02:20 27° NW 04:03:16 34° N 04:06:10 10° ENE
Aureole 2 Rocket 3.5 04:05:17 22° SSW 04:05:17 22° SSW 04:06:53 10° S
Meteor 1-31 Rocket 2.7 04:00:54 10° NNE 04:04:41 62° WNW 04:08:26 10° SSW
Spot 2 4.1 04:01:56 10° NNE 04:05:52 51° WNW 04:08:48 17° SW
Cosmos 2237 Rocket 2.3 04:03:02 22° WSW 04:06:43 60° NW 04:12:19 10° NE
Cosmos 2251 Rocket 3.5 04:01:30 10° SW 04:06:48 87° NW 04:12:10 10° NE
Cosmos 1455 2.9 04:06:37 29° W 04:07:31 33° WNW 04:11:00 10° N
Cosmos 921 Rocket 3.3 04:03:23 10° NW 04:07:42 46° WSW 04:11:55 10° S
PSLV R/B 4.3 04:04:53 10° N 04:08:36 31° NW 04:09:56 25° W
PAYLOAD A 4.2 04:04:03 10° NNE 04:08:37 46° WNW 04:12:27 15° SW
Cosmos 1605 Rocket 4.5 04:03:04 10° NNW 04:08:41 35° W 04:14:12 10° SSW
COSMO-SKYMED 1 3.0 04:04:46 10° SSW 04:08:50 38° W 04:12:56 10° NNW
Cosmos 1633 Rocket 3.4 04:04:30 10° NNW 04:08:53 67° ENE 04:13:15 10° SSE
Cosmos 2084 Rocket 3.5 04:06:34 25° WNW 04:09:10 80° N 04:13:39 10° E
Cosmos 1666 Rocket 3.7 04:05:03 10° NNW 04:09:34 78° ENE 04:14:01 10° SSE
Cosmos 1340 3.6 04:06:52 10° N 04:10:34 50° ENE 04:14:15 10° SE
Cosmos 841 Rocket 4.2 04:09:20 10° NNW 04:14:26 53° NE 04:19:34 10° ESE
GEOS 3 Rocket 4.3 04:09:35 10° ENE 04:14:47 56° SE 04:20:02 10° SW
USA 116 3.5 04:11:53 10° S 04:14:52 40° W 04:17:51 10° NNW
CZ-4B R/B 4.1 04:11:28 10° NNE 04:15:34 56° WNW 04:19:50 10° SW
NOSS 2-1 (C) 4.1 04:12:26 12° SW 04:15:35 47° SE 04:19:41 10° ENE
Cosmos 2016 Rocket 3.9 04:10:07 10° NNW 04:16:20 79° W 04:22:35 10° S
ATLAS 2AS CENTAUR R/B 3.0 04:10:29 16° WNW 04:17:08 84° SSW 04:24:32 10° ESE
Cosmos 2219 Rocket 2.9 04:14:45 20° W 04:18:14 40° NNW 04:23:36 10° NE
SJ-12 3.9 04:15:05 10° NNE 04:19:15 89° WNW 04:23:24 10° SSW
NOSS 2-1 (D) 4.0 04:16:24 12° SW 04:19:37 50° SE 04:23:46 10° ENE
ADEOS 4.0 04:15:49 10° NNE 04:20:41 40° NW 04:25:00 13° WSW
NOSS 7 (E) 4.2 04:21:58 26° W 04:23:34 70° NNW 04:26:55 10° ENE
Cosmos 220 Rocket 4.2 04:20:08 10° NNW 04:24:24 72° NE 04:28:37 10° SE
METEOR-M 4.2 04:19:20 10° NNE 04:24:44 88° ESE 04:30:06 10° SSW
Cosmos 1763 Rocket 3.6 04:19:48 10° NW 04:25:10 81° NE 04:30:32 10° SE
Cosmos 2221 2.4 04:20:54 10° SSW 04:25:10 72° WNW 04:29:31 10° NNE
Helios 1A Rocket 4.2 04:25:58 10° NNE 04:29:59 45° E 04:33:59 10° S
Cosmos 2360 Rocket 3.3 04:26:01 15° WNW 04:30:07 32° N 04:35:11 10° ENE
Cosmos 1869 3.2 04:26:09 10° SSW 04:30:10 88° WNW 04:34:10 10° NNE
Cosmos-2242 4.1 04:28:38 18° W 04:30:39 26° WNW 04:34:16 10° N
COSMOS 2428 3.5 04:28:26 17° W 04:32:27 39° NNW 04:37:50 10° NE
Meteor 2-10 Rocket 3.9 04:28:11 10° SW 04:33:11 41° WNW 04:38:03 10° NNE
Cosmos 1697 Rocket 3.5 04:27:59 10° NW 04:33:29 48° NNE 04:38:57 10° ESE
Cosmos 1943 Rocket 3.3 04:31:14 15° WNW 04:33:51 21° WSW 04:37:49 10° SSW
Cosmos 2233 Rocket 4.1 04:28:49 10° NNW 04:35:06 85° ENE 04:41:25 10° SSE
Cosmos 1238 Rocket 4.0 04:28:59 10° NNW 04:35:26 61° W 04:41:11 10° S
ARIANE 5 R/B 4.3 04:33:25 10° N 04:36:13 15° NNW 04:38:14 12° WNW
Cosmos 1980 Rocket 3.2 04:32:55 10° NW 04:38:15 40° NNE 04:43:32 10° E
Lacrosse 5 3.8 04:38:33 11° WSW 04:39:46 12° SW 04:41:44 10° SSW
Cosmos 1461 3.4 04:38:20 16° WNW 04:41:35 53° N 04:45:53 10° E
CZ-2D R/B 4.2 04:40:46 10° N 04:41:42 10° NNW 04:42:37 10° NNW
CZ-2C R/B 3.2 04:37:13 10° N 04:41:56 35° NW 04:46:36 10° WSW
Cosmos 1241 Rocket 4.5 04:37:37 12° WSW 04:43:25 72° NNW 04:49:39 10° ENE
Cosmos 1727 Rocket 4.0 04:37:50 10° SSW 04:43:55 57° WNW 04:50:03 10° NNE
Cosmos 2173 Rocket 4.3 04:39:24 10° NNW 04:45:22 44° W 04:51:14 10° SSW
ADEOS Rocket 3.4 04:40:13 10° S 04:46:31 56° W 04:53:35 10° NNW
SL-16 R/B 2.2 04:42:44 10° WSW 04:48:24 67° NW 04:54:06 10° NE
Cosmos 1470 Rocket 3.6 04:44:43 10° NNW 04:49:11 87° ENE 04:53:40 10° SSE
Mayak 1.7 04:49:11 10° NE 04:49:44 10° NE 04:50:17 10° NNE
Cosmos 1805 Rocket 4.1 04:46:34 10° NNW 04:50:29 34° W 04:54:24 10° SSW
RESURS DK-1 3.8 04:48:30 10° NW 04:52:13 29° NNE 04:55:56 10° ENE
FENGYUN 3A 3.7 04:47:01 10° NNE 04:52:26 66° WNW 04:57:49 10° SW
CZ-2C R/B 3.5 04:48:39 10° SE 04:54:05 55° ENE 04:59:36 10° NNW
Cosmos 2369 Rocket 3.5 04:50:15 10° WNW 04:54:14 20° WSW 04:58:14 10° SW
Cosmos 1862 3.7 04:50:51 10° NNW 04:54:35 39° W 04:58:17 10° SSW
Cosmos 1980 4.3 04:51:19 11° W 04:56:27 42° NNW 05:01:53 10° NE
COSMOS 2455 2.9 04:50:30 10° NW 04:56:34 89° SW 05:02:38 10° SE
H-2A R/B 3.2 04:53:07 10° NNE 04:56:56 66° ESE 05:00:41 10° S
Cosmos 2208 Rocket 4.1 04:51:42 10° NW 04:57:05 88° ENE 05:02:20 10° SSE
Cosmos 407 Rocket 3.7 04:52:10 10° SSW 04:57:30 80° ESE 05:02:48 10° NE
Sich 1 3.5 04:53:52 10° NNW 04:57:50 37° W 05:01:47 10° SSW
CZ-4B DEB 4.2 04:52:26 10° NNE 04:57:58 74° WNW 05:03:26 10° SSW
Okean O Rocket 1.6 04:53:41 10° NNE 04:58:07 86° WNW 05:02:31 10° SSW
SL-16 R/B 3.3 04:54:00 10° NW 04:59:11 35° NNE 05:04:23 10° ENE
USA 215 3.6 04:54:05 10° ESE 05:00:33 59° S 05:07:02 10° W
Cosmos 1140 Rocket 3.9 04:59:12 10° SSW 05:04:26 72° ESE 05:09:42 10° NE
Cosmos 1603 3.9 04:58:43 10° SSW 05:04:26 78° SE 05:10:08 10° NE
Cosmos 2278 4.4 04:59:15 10° NW 05:04:50 53° NNE 05:10:23 10° ESE
Cosmos 2061 Rocket 4.3 04:59:29 10° NNW 05:05:25 44° W 05:11:17 10° SSW
Meteor 1-20 Rocket 4.3 05:00:44 10° NNW 05:06:23 88° ENE 05:12:08 10° SSE
NOSS 2-1 (E) 3.5 05:02:53 10° WSW 05:06:33 76° SSE 05:11:10 10° ENE
CZ-4B R/B 3.1 05:04:19 10° NNE 05:09:44 84° WNW 05:15:04 10° SSW
Cosmos 1484 Rocket 3.7 05:08:00 10° N 05:11:21 28° WNW 05:14:43 10° WSW
Cosmos 1943 3.5 05:06:00 10° SSW 05:11:36 72° SE 05:17:16 10° NE
CZ-4B R/B 3.9 05:09:41 10° N 05:12:49 24° NW 05:15:49 10° WSW
CZ-4 R/B 3.9 05:09:20 10° NNE 05:12:54 27° E 05:16:22 10° SSE
Cosmos 1656 3.8 05:07:42 10° NW 05:13:24 83° NE 05:19:07 10° SE
NOSS 0 Rocket 4.5 05:09:00 10° W 05:14:58 44° NNW 05:20:55 10° NE
ALOS 2.7 05:10:44 10° N 05:15:08 41° WNW 05:19:31 10° SW
H-2A R/B 3.6 05:14:02 10° N 05:17:34 25° NW 05:21:10 10° WSW
ADEOS II 4.1 05:16:54 10° N 05:18:23 11° NNW 05:19:52 10° NW
Cosmos 2333 Rocket 3.2 05:14:13 10° WNW 05:19:25 33° N 05:24:35 10° ENE
Cosmos 1190 Rocket 4.1 05:14:08 10° SW 05:19:27 87° NW 05:24:50 10° NE
Envisat 3.7 05:14:26 10° NNE 05:19:31 61° ESE 05:24:33 10° S
AQUARIUS 4.5 05:15:17 10° NNE 05:19:49 76° ESE 05:24:20 10° SSW
Cosmos 1869 Rocket 4.2 05:16:16 10° N 05:20:37 61° ENE 05:24:55 10° SSE
CZ-4C R/B 2.6 05:15:28 10° W 05:21:24 76° N 05:28:37 10° E
Cosmos 540 Rocket 3.5 05:17:19 10° NW 05:22:31 80° WSW 05:27:41 10° SSE
Cosmos 1725 Rocket 4.4 05:17:10 10° NNW 05:22:58 42° W 05:28:46 10° SSW
Cosmos 1346 Rocket 3.0 05:20:03 10° NNW 05:23:52 48° W 05:27:38 10° S
Cosmos 2369 4.0 05:19:40 10° NW 05:25:25 72° NE 05:31:06 10° SE
ATLAS CENTAUR R/B 1.5 05:20:57 10° WSW 05:25:30 75° NNW 05:29:43 10° ENE
Cosmos 1570 Rocket 4.2 05:20:33 10° NW 05:25:47 60° WSW 05:31:01 10° SSE
Cosmos 2344 4.4 05:20:43 10° WNW 05:29:21 69° SW 05:41:11 10° SE
